Date String (YYYY-MM-DD hh:mm:ss) UTC,Instrument flags,Ambient pressure (hPa),Sample flow (lpm),Bypass flow (lpm),Sample temperature (°C),Ambient temperature (°C),ASC tube jacket temperature (°C),LED temperature (°C),Box temperature (°C),Sample RH (%),Span deviation,Mass concentration (μg/m³),Mass concentration (μg/m³),Mass concentration (μg/m³)
DateTimeUTC,F1_M11,P_M11,Q1_M11,Q2_M11,T1_M11,T2_M11,T3_M11,T4_M11,T5_M11,U1_M11,ZSPAN_M11,X0_M11,X2_M11,X1_M11
2021-10-15 08:00:00,,0828.8,5.00,0.00,23.9,23.0,00.0,33.0,25.6,19.3,-000.3,0012.06,0009.64,0009.33
2021-10-15 08:01:00,,0828.7,5.00,0.00,23.9,23.0,00.0,33.0,25.7,19.3,-000.4,0011.96,0009.67,0009.36
2021-10-15 08:02:00,,0828.8,5.00,0.00,23.9,23.0,00.0,33.0,25.7,19.4,-000.1,0012.05,0009.74,0009.43
2021-10-15 08:03:00,,0829.1,4.99,0.00,23.9,23.0,00.0,33.0,25.7,19.4,-000.8,0012.29,0009.78,0009.47
2021-10-15 08:04:00,,0829.0,5.03,0.00,23.9,23.0,00.0,33.0,25.7,19.4,0000.2,0012.38,0009.83,0009.51
2021-10-15 08:05:00,,0828.8,4.99,0.00,23.9,23.0,00.0,33.0,25.6,19.3,-000.1,0012.49,0009.88,0009.55
2021-10-15 08:06:00,,0828.8,5.00,0.00,23.9,22.9,00.0,33.0,25.6,19.4,0000.2,0012.63,0009.93,0009.61
2021-10-15 08:07:00,,0828.9,5.01,0.00,23.9,22.9,00.0,33.0,25.6,19.5,0000.8,0012.65,0010.02,0009.70
2021-10-15 08:08:00,,0828.8,4.99,0.00,23.9,22.9,00.0,33.0,25.6,19.7,0000.8,0012.76,0010.14,0009.80
2021-10-15 08:09:00,,0828.9,5.00,0.00,23.9,22.9,00.0,33.0,25.6,19.7,0000.7,0012.86,0010.25,0009.89
2021-10-15 08:10:00,,0828.9,4.99,0.00,23.9,22.9,00.0,33.0,25.6,19.8,0001.2,0013.03,0010.39,0010.00
2021-10-15 08:11:00,,0828.9,5.01,0.00,23.8,22.9,00.0,33.0,25.6,19.8,0001.4,0013.10,0010.48,0010.09
2021-10-15 08:12:00,,0828.9,5.00,0.00,23.9,22.9,00.0,33.0,25.6,19.9,0001.4,0013.18,0010.56,0010.16
2021-10-15 08:13:00,,0828.9,4.99,0.00,23.8,22.9,00.0,33.0,25.6,20.0,0001.1,0013.28,0010.63,0010.23
2021-10-15 08:14:00,,0828.9,5.00,0.00,23.8,22.9,00.0,33.0,25.6,19.9,0001.3,0013.22,0010.69,0010.26
2021-10-15 08:15:00,,0828.9,5.01,0.00,23.8,22.8,00.0,33.0,25.6,19.9,0000.8,0013.22,0010.74,0010.31
2021-10-15 08:16:00,,0828.9,4.99,0.00,23.8,22.9,00.0,33.0,25.6,19.9,0001.2,0013.24,0010.79,0010.35
2021-10-15 08:17:00,,0828.9,5.00,0.00,23.8,22.9,00.0,33.0,25.6,19.8,0001.4,0013.04,0010.79,0010.37
2021-10-15 08:18:00,,0828.9,4.99,0.00,23.8,22.8,00.0,33.0,25.5,19.6,0001.8,0012.96,0010.69,0010.28
2021-10-15 08:19:00,,0828.9,5.01,0.00,23.8,22.8,00.0,33.0,25.5,19.4,0001.9,0012.75,0010.44,0010.05
2021-10-15 08:20:00,,0828.9,5.00,0.00,23.8,22.8,00.0,32.9,25.5,19.3,0001.3,0012.54,0010.19,0009.80
2021-10-15 08:21:00,,0828.9,4.99,0.00,23.8,22.8,00.0,32.9,25.5,19.1,0000.8,0012.28,0009.90,0009.52
2021-10-15 08:22:00,,0829.0,5.00,0.00,23.8,22.8,00.0,32.9,25.5,19.1,0000.8,0012.06,0009.67,0009.31
2021-10-15 08:23:00,,0829.0,5.00,0.00,23.8,22.8,00.0,32.9,25.5,19.0,0001.0,0011.88,0009.42,0009.07
2021-10-15 08:24:00,,0829.0,4.99,0.00,23.8,22.8,00.0,32.9,25.5,18.8,0001.7,0011.58,0009.12,0008.78
2021-10-15 08:25:00,,0829.1,5.00,0.00,23.8,22.8,00.0,32.9,25.5,18.7,0002.0,0011.19,0008.80,0008.49
2021-10-15 08:26:00,,0829.1,5.00,0.00,23.8,22.8,00.0,32.9,25.5,18.9,0001.7,0010.98,0008.58,0008.27
2021-10-15 08:27:00,,0829.2,5.00,0.00,23.8,22.7,00.0,32.9,25.5,19.0,0001.4,0010.82,0008.40,0008.10
2021-10-15 08:28:00,,0829.2,5.01,0.00,23.7,22.7,00.0,32.9,25.5,18.8,0000.7,0010.55,0008.18,0007.89
2021-10-15 08:29:00,,0829.1,5.00,0.00,23.7,22.7,00.0,32.9,25.5,18.0,0000.6,0010.30,0007.91,0007.63
2021-10-15 08:30:00,,0829.0,5.01,0.00,23.7,22.6,00.0,32.9,25.4,17.7,0000.0,0010.10,0007.68,0007.41
2021-10-15 08:31:00,,0829.0,4.99,0.00,23.7,22.6,00.0,32.9,25.4,16.9,0000.0,0009.81,0007.38,0007.15
2021-10-15 08:32:00,,0828.9,5.00,0.00,23.7,22.6,00.0,32.9,25.4,15.8,0000.0,0009.40,0006.98,0006.76
2021-10-15 08:33:00,,0828.9,4.99,0.00,23.7,22.6,00.0,32.9,25.3,14.8,0000.0,0008.85,0006.45,0006.26
2021-10-15 08:34:00,,0828.9,5.01,0.00,23.6,22.5,00.0,32.8,25.2,14.5,0000.0,0008.29,0005.96,0005.78
2021-10-15 08:35:00,,0828.9,5.00,0.00,23.6,22.4,00.0,32.8,25.2,14.2,0000.0,0007.84,0005.54,0005.38
2021-10-15 08:36:00,,0828.8,5.00,0.00,23.6,22.4,00.0,32.8,25.2,14.0,0000.0,0007.43,0005.18,0005.03
2021-10-15 08:37:00,,0828.9,5.00,0.00,23.5,22.4,00.0,32.8,25.0,13.5,0000.0,0006.66,0004.71,0004.57
2021-10-15 08:38:00,,0828.9,5.00,0.00,23.5,22.3,00.0,32.8,25.0,13.4,0000.0,0005.65,0004.16,0004.04
2021-10-15 08:39:00,,0829.0,5.00,0.00,23.5,22.3,00.0,32.8,24.9,13.4,0000.0,0004.69,0003.63,0003.53
2021-10-15 08:40:00,,0829.1,5.00,0.00,23.4,22.2,00.0,32.7,24.9,13.1,0000.0,0003.93,0003.22,0003.08
2021-10-15 08:41:00,,0829.0,5.00,0.00,23.4,22.1,00.0,32.7,24.9,12.8,0000.0,0003.23,0002.70,0002.54
2021-10-15 08:42:00,,0829.0,5.00,0.00,23.4,22.0,00.0,32.7,24.9,12.7,0000.0,0002.80,0002.27,0002.06
2021-10-15 08:43:00,,0829.1,5.00,0.00,23.3,22.0,00.0,32.7,24.9,12.8,0000.0,0002.65,0002.08,0001.86
2021-10-15 08:44:00,,0829.0,5.00,0.00,23.3,22.0,00.0,32.6,24.9,12.6,0000.0,0002.71,0002.05,0001.81
2021-10-15 08:45:00,,0829.1,4.99,0.00,23.3,22.0,00.0,32.6,24.9,12.6,0000.0,0002.81,0002.05,0001.79
2021-10-15 08:46:00,,0829.0,5.00,0.00,23.3,21.9,00.0,32.6,24.8,12.8,0000.0,0003.13,0002.05,0001.78
2021-10-15 08:47:00,,0829.1,5.00,0.00,23.2,21.9,00.0,32.6,24.8,12.8,0000.0,0003.13,0002.03,0001.77
2021-10-15 08:48:00,,0829.1,5.00,0.00,23.2,21.9,00.0,32.6,24.9,12.6,0000.0,0003.20,0002.05,0001.76
2021-10-15 08:49:00,,0829.1,5.01,0.00,23.2,21.9,00.0,32.6,24.9,13.0,0000.0,0003.70,0002.04,0001.75
2021-10-15 08:50:00,,0829.1,5.00,0.00,23.2,21.9,00.0,32.5,24.8,12.8,0000.0,0003.98,0002.05,0001.75
2021-10-15 08:51:00,,0829.2,4.99,0.00,23.2,21.9,00.0,32.5,24.8,12.9,0000.0,0003.97,0002.04,0001.74
2021-10-15 08:52:00,,0829.2,5.01,0.00,23.2,21.9,00.0,32.5,24.8,12.8,0000.0,0004.52,0002.05,0001.73
2021-10-15 08:53:00,,0829.2,5.01,0.00,23.2,21.9,00.0,32.5,24.8,12.5,0000.0,0005.20,0002.03,0001.71
2021-10-15 08:54:00,,0829.2,4.99,0.00,23.2,21.9,00.0,32.5,24.8,12.7,0000.0,0005.17,0002.01,0001.71
2021-10-15 08:55:00,,0829.2,5.00,0.00,23.2,22.0,00.0,32.4,24.8,13.7,0000.0,0005.18,0002.07,0001.76
2021-10-15 08:56:00,,0829.3,5.00,0.00,23.2,22.0,00.0,32.4,24.8,15.7,0000.0,0005.60,0002.51,0002.19
2021-10-15 08:57:00,,0829.2,4.99,0.00,23.1,22.0,00.0,32.4,24.8,17.3,0000.0,0006.23,0003.23,0002.92
2021-10-15 08:58:00,,0829.2,5.01,0.00,23.2,22.0,00.0,32.4,24.9,17.3,0000.0,0007.04,0003.66,0003.41
2021-10-15 08:59:00,,0829.3,5.00,0.00,23.2,22.0,00.0,32.4,24.9,17.2,0000.0,0007.93,0004.04,0003.77
